| time (UTC) | temp F | wind direction | speed MPH | gust MPH | rain 1hr in | rain 24hr in | rain mn in | humidity % | barometer mb |
| 20260506001602 | 49 | 0.0 | 0.0 | 0.00 | 0.00 | 0.00 | 78 | 1011.3 | |
| 20260506001102 | 50 | 0.0 | 0.0 | 0.00 | 0.00 | 0.00 | 75 | 1011.3 | |
| 20260506000601 | 50 | 0.0 | 0.0 | 0.00 | 0.00 | 0.00 | 77 | 1011.4 | |
| 20260505235603 | 49 | 0.0 | 0.0 | 0.00 | 0.00 | 0.00 | 80 | 1011.5 | |
| 20260505235102 | 49 | 0.0 | 0.0 | 0.00 | 0.00 | 0.00 | 78 | 1011.4 | |
| 20260505234602 | 49 | 0.0 | 0.0 | 0.00 | 0.00 | 0.00 | 78 | 1011.4 | |
| 20260505234102 | 49 | 0.0 | 0.0 | 0.00 | 0.00 | 0.00 | 79 | 1011.5 | |
| 20260505233603 | 50 | 0.0 | 0.0 | 0.00 | 0.00 | 0.00 | 76 | 1011.4 | |
| 20260505232602 | 49 | 0.0 | 0.0 | 0.00 | 0.00 | 0.00 | 79 | 1011.4 | |
| 20260505231602 | 51 | 0.0 | 0.0 | 0.00 | 0.00 | 0.00 | 74 | 1011.4 | |
| 20260505231102 | 51 | 0.0 | 0.0 | 0.00 | 0.00 | 0.00 | 75 | 1011.3 | |
| 20260505230602 | 51 | 0.0 | 0.0 | 0.00 | 0.00 | 0.00 | 75 | 1011.4 | |
| 20260505225602 | 50 | 0.0 | 0.0 | 0.00 | 0.00 | 0.00 | 77 | 1011.5 | |
| 20260505225102 | 50 | 0.0 | 0.0 | 0.00 | 0.00 | 0.00 | 76 | 1011.5 | |
| 20260505224103 | 51 | 0.0 | 0.0 | 0.00 | 0.00 | 0.00 | 76 | 1011.5 | |
| 20260505223602 | 51 | 0.0 | 0.0 | 0.00 | 0.00 | 0.00 | 76 | 1011.6 | |
| 20260505222602 | 50 | 0.0 | 0.0 | 0.00 | 0.00 | 0.00 | 76 | 1011.6 | |
| 20260505222102 | 50 | 0.0 | 0.0 | 0.00 | 0.00 | 0.00 | 77 | 1011.6 | |
| 20260505221602 | 50 | 0.0 | 0.0 | 0.00 | 0.00 | 0.00 | 76 | 1011.6 | |
| 20260505221103 | 50 | 0.0 | 0.0 | 0.00 | 0.00 | 0.00 | 76 | 1011.6 | |
| 20260505220602 | 51 | 0.0 | 0.0 | 0.00 | 0.00 | 0.00 | 75 | 1011.8 | |
| 20260505215602 | 50 | 0.0 | 0.0 | 0.00 | 0.00 | 0.00 | 75 | 1011.8 | |
| 20260505215102 | 50 | 0.0 | 0.0 | 0.00 | 0.00 | 0.00 | 76 | 1011.8 | |
| 20260505214603 | 51 | 0.0 | 0.0 | 0.00 | 0.00 | 0.00 | 73 | 1011.8 | |
| 20260505214107 | 51 | 0.0 | 0.0 | 0.00 | 0.00 | 0.00 | 74 | 1011.9 | |
| 20260505213603 | 50 | 0.0 | 0.0 | 0.00 | 0.00 | 0.00 | 74 | 1011.8 | |
| 20260505213103 | 51 | 0.0 | 0.0 | 0.00 | 0.00 | 0.00 | 75 | 1011.8 | |
| 20260505212602 | 51 | 0.0 | 0.0 | 0.00 | 0.00 | 0.00 | 77 | 1011.8 | |
| 20260505212104 | 51 | 0.0 | 0.0 | 0.00 | 0.00 | 0.00 | 78 | 1011.8 | |
| 20260505211602 | 51 | 0.0 | 0.0 | 0.00 | 0.00 | 0.00 | 78 | 1011.9 | |
| 20260505211103 | 51 | 0.0 | 0.0 | 0.00 | 0.00 | 0.00 | 76 | 1011.9 | |
| 20260505210602 | 52 | 0.0 | 0.0 | 0.00 | 0.00 | 0.00 | 75 | 1011.8 | |
| 20260505205602 | 51 | 0.0 | 0.0 | 0.00 | 0.00 | 0.00 | 75 | 1011.8 | |
| 20260505205102 | 51 | 0.0 | 0.0 | 0.00 | 0.00 | 0.00 | 75 | 1011.9 | |
| 20260505204602 | 51 | 0.0 | 0.0 | 0.00 | 0.00 | 0.00 | 73 | 1011.8 | |
| 20260505204103 | 52 | 0.0 | 0.0 | 0.00 | 0.00 | 0.00 | 74 | 1011.7 | |
| 20260505203603 | 51 | 0.0 | 0.0 | 0.00 | 0.00 | 0.00 | 75 | 1011.6 | |
| 20260505203102 | 51 | 0.0 | 0.0 | 0.00 | 0.00 | 0.00 | 75 | 1011.6 | |
| 20260505202602 | 52 | 0.0 | 0.0 | 0.00 | 0.00 | 0.00 | 74 | 1011.5 | |
| 20260505201603 | 52 | 0.0 | 0.0 | 0.00 | 0.00 | 0.00 | 74 | 1011.4 | |
| 20260505201102 | 52 | 0.0 | 0.0 | 0.00 | 0.00 | 0.00 | 72 | 1011.3 | |
| 20260505200602 | 51 | 0.0 | 0.0 | 0.00 | 0.00 | 0.00 | 73 | 1011.1 | |
| 20260505200103 | 52 | 0.0 | 0.0 | 0.00 | 0.00 | 0.00 | 74 | 1011.1 | |
| 20260505195603 | 52 | 0.0 | 0.0 | 0.00 | 0.00 | 0.00 | 74 | 1011.1 | |
| 20260505195103 | 53 | 0.0 | 0.0 | 0.00 | 0.00 | 0.00 | 74 | 1011.1 | |
| 20260505194651 | 53 | 0.0 | 0.0 | 0.00 | 0.00 | 0.00 | 72 | 1011.1 | |
| 20260505193603 | 53 | 0.0 | 0.0 | 0.00 | 0.00 | 0.00 | 72 | 1011.1 | |
| 20260505193103 | 53 | 0.0 | 0.0 | 0.00 | 0.00 | 0.00 | 73 | 1011.1 | |
| 20260505192602 | 54 | 0.0 | 0.0 | 0.00 | 0.00 | 0.00 | 71 | 1011.0 | |
| 20260505192102 | 53 | 0.0 | 0.0 | 0.00 | 0.00 | 0.00 | 71 | 1010.9 | |
| 20260505191603 | 53 | 0.0 | 0.0 | 0.00 | 0.00 | 0.00 | 71 | 1010.9 | |
| 20260505191102 | 53 | 0.0 | 0.0 | 0.00 | 0.00 | 0.00 | 72 | 1010.8 | |
| 20260505190603 | 53 | 0.0 | 0.0 | 0.00 | 0.00 | 0.00 | 69 | 1010.7 | |
| 20260505185603 | 53 | 0.0 | 0.0 | 0.00 | 0.00 | 0.00 | 69 | 1010.7 | |
| 20260505185103 | 53 | 0.0 | 0.0 | 0.00 | 0.00 | 0.00 | 69 | 1010.6 | |
| 20260505184602 | 52 | 0.0 | 0.0 | 0.00 | 0.00 | 0.00 | 71 | 1010.6 | |
| 20260505184103 | 53 | 0.0 | 0.0 | 0.00 | 0.00 | 0.00 | 69 | 1010.5 | |
| 20260505183602 | 53 | 0.0 | 0.0 | 0.00 | 0.00 | 0.00 | 68 | 1010.5 | |
| 20260505182603 | 53 | 0.0 | 0.0 | 0.00 | 0.00 | 0.00 | 71 | 1010.4 | |
| 20260505181603 | 53 | 0.0 | 0.0 | 0.00 | 0.00 | 0.00 | 75 | 1010.3 | |
| 20260505181102 | 53 | 0.0 | 0.0 | 0.00 | 0.00 | 0.00 | 74 | 1010.3 | |
| 20260505180603 | 53 | 0.0 | 0.0 | 0.00 | 0.00 | 0.00 | 71 | 1010.3 | |
| 20260505175602 | 54 | 0.0 | 0.0 | 0.00 | 0.00 | 0.00 | 64 | 1010.3 | |
| 20260505175103 | 54 | 0.0 | 0.0 | 0.00 | 0.00 | 0.00 | 73 | 1010.3 | |
| 20260505174102 | 55 | 0.0 | 0.0 | 0.00 | 0.00 | 0.00 | 69 | 1010.3 | |
| 20260505173602 | 55 | 0.0 | 0.0 | 0.00 | 0.00 | 0.00 | 70 | 1010.3 | |
| 20260505173103 | 55 | 0.0 | 0.0 | 0.00 | 0.00 | 0.00 | 70 | 1010.3 | |
| 20260505172603 | 55 | 0.0 | 0.0 | 0.00 | 0.00 | 0.00 | 59 | 1010.3 | |
| 20260505172102 | 56 | 0.0 | 0.0 | 0.00 | 0.00 | 0.00 | 58 | 1010.4 | |
| 20260505171602 | 56 | 0.0 | 0.0 | 0.00 | 0.00 | 0.00 | 59 | 1010.5 | |
| 20260505170603 | 57 | 0.0 | 0.0 | 0.00 | 0.00 | 0.00 | 56 | 1010.7 | |
| 20260505165102 | 57 | 0.0 | 0.0 | 0.00 | 0.00 | 0.00 | 59 | 1010.9 | |
| 20260505164602 | 57 | 0.0 | 0.0 | 0.00 | 0.00 | 0.00 | 60 | 1010.9 | |
| 20260505164102 | 56 | 0.0 | 0.0 | 0.00 | 0.00 | 0.00 | 62 | 1011.0 | |
| 20260505163603 | 55 | 0.0 | 0.0 | 0.00 | 0.00 | 0.00 | 64 | 1011.1 | |
| 20260505163102 | 55 | 0.0 | 0.0 | 0.00 | 0.00 | 0.00 | 67 | 1011.1 | |
| 20260505162603 | 55 | 0.0 | 0.0 | 0.00 | 0.00 | 0.00 | 67 | 1011.1 | |
| 20260505162102 | 54 | 0.0 | 0.0 | 0.00 | 0.00 | 0.00 | 71 | 1011.3 | |
| 20260505161602 | 53 | 0.0 | 0.0 | 0.00 | 0.00 | 0.00 | 73 | 1011.4 | |
| 20260505161102 | 53 | 0.0 | 0.0 | 0.00 | 0.00 | 0.00 | 69 | 1011.5 | |
| 20260505160603 | 53 | 0.0 | 0.0 | 0.00 | 0.00 | 0.00 | 69 | 1011.5 | |
| 20260505153103 | 54 | 0.0 | 0.0 | 0.00 | 0.00 | 0.00 | 60 | 1011.1 | |
| 20260505152602 | 54 | 0.0 | 0.0 | 0.00 | 0.00 | 0.00 | 55 | 1010.9 | |
| 20260505152102 | 55 | 0.0 | 0.0 | 0.00 | 0.00 | 0.00 | 50 | 1010.5 | |
| 20260505151602 | 55 | 0.0 | 0.0 | 0.00 | 0.00 | 0.00 | 50 | 1010.3 | |
| 20260505151103 | 56 | 0.0 | 0.0 | 0.00 | 0.00 | 0.00 | 53 | 1010.3 | |
| 20260505150603 | 56 | 0.0 | 0.0 | 0.00 | 0.00 | 0.00 | 53 | 1010.2 | |
| 20260505140602 | 58 | 0.0 | 0.0 | 0.00 | 0.00 | 0.00 | 47 | 1009.8 | |
| 20260505124602 | 59 | 0.0 | 0.0 | 0.00 | 0.00 | 0.00 | 42 | 1009.9 | |
| 20260505124103 | 58 | 0.0 | 0.0 | 0.00 | 0.00 | 0.00 | 42 | 1009.8 | |
| 20260505123603 | 58 | 0.0 | 0.0 | 0.00 | 0.00 | 0.00 | 41 | 1009.9 | |
| 20260505123102 | 58 | 0.0 | 0.0 | 0.00 | 0.00 | 0.00 | 42 | 1009.9 | |
| 20260505122602 | 58 | 0.0 | 0.0 | 0.00 | 0.00 | 0.00 | 42 | 1009.9 | |
| 20260505122103 | 59 | 0.0 | 0.0 | 0.00 | 0.00 | 0.00 | 42 | 1009.9 | |
| 20260505121602 | 58 | 0.0 | 0.0 | 0.00 | 0.00 | 0.00 | 42 | 1010.0 | |
| 20260505121101 | 58 | 0.0 | 0.0 | 0.00 | 0.00 | 0.00 | 41 | 1010.1 | |
| 20260505120603 | 58 | 0.0 | 0.0 | 0.00 | 0.00 | 0.00 | 42 | 1010.1 | |
| 20260505120104 | 58 | 0.0 | 0.0 | 0.00 | 0.00 | 0.00 | 40 | 1010.1 | |
| 20260505115602 | 58 | 0.0 | 0.0 | 0.00 | 0.00 | 0.00 | 40 | 1010.2 | |
| 20260505115102 | 58 | 0.0 | 0.0 | 0.00 | 0.00 | 0.00 | 41 | 1010.4 | |
| 20260505114602 | 58 | 0.0 | 0.0 | 0.00 | 0.00 | 0.00 | 42 | 1010.2 | |
| 20260505114103 | 58 | 0.0 | 0.0 | 0.00 | 0.00 | 0.00 | 42 | 1010.3 | |
| 20260505113603 | 58 | 0.0 | 0.0 | 0.00 | 0.00 | 0.00 | 42 | 1010.4 | |
| 20260505113103 | 58 | 0.0 | 0.0 | 0.00 | 0.00 | 0.00 | 43 | 1010.4 | |
| 20260505112603 | 58 | 0.0 | 0.0 | 0.00 | 0.00 | 0.00 | 43 | 1010.4 | |
| 20260505111602 | 57 | 0.0 | 0.0 | 0.00 | 0.00 | 0.00 | 45 | 1010.6 | |
| 20260505111102 | 57 | 0.0 | 0.0 | 0.00 | 0.00 | 0.00 | 45 | 1010.7 | |
| 20260505110602 | 57 | 0.0 | 0.0 | 0.00 | 0.00 | 0.00 | 44 | 1010.7 | |
| 20260505102102 | 56 | 0.0 | 0.0 | 0.00 | 0.00 | 0.00 | 49 | 1011.2 | |
| 20260505101603 | 56 | 0.0 | 0.0 | 0.00 | 0.00 | 0.00 | 51 | 1011.1 | |
| 20260505101102 | 57 | 0.0 | 0.0 | 0.00 | 0.00 | 0.00 | 50 | 1011.1 | |
| 20260505100603 | 57 | 0.0 | 0.0 | 0.00 | 0.00 | 0.00 | 50 | 1011.2 | |
| 20260505095603 | 56 | 0.0 | 0.0 | 0.00 | 0.00 | 0.00 | 52 | 1011.3 | |
| 20260505095103 | 56 | 0.0 | 0.0 | 0.00 | 0.00 | 0.00 | 57 | 1011.4 | |
| 20260505094102 | 55 | 0.0 | 0.0 | 0.00 | 0.00 | 0.00 | 68 | 1011.5 | |
| 20260505093602 | 55 | 0.0 | 0.0 | 0.00 | 0.00 | 0.00 | 67 | 1011.6 | |
| 20260505093103 | 54 | 0.0 | 0.0 | 0.00 | 0.00 | 0.00 | 66 | 1011.8 | |
| 20260505092603 | 55 | 0.0 | 0.0 | 0.00 | 0.00 | 0.00 | 68 | 1011.8 | |
| 20260505092104 | 55 | 0.0 | 0.0 | 0.00 | 0.00 | 0.00 | 69 | 1011.8 | |
| 20260505090602 | 54 | 0.0 | 0.0 | 0.00 | 0.00 | 0.00 | 73 | 1012.0 | |
| 20260505085602 | 53 | 0.0 | 0.0 | 0.00 | 0.00 | 0.00 | 74 | 1012.1 | |
| 20260505085102 | 53 | 0.0 | 0.0 | 0.00 | 0.00 | 0.00 | 72 | 1012.2 | |
| 20260505084603 | 52 | 0.0 | 0.0 | 0.00 | 0.00 | 0.00 | 73 | 1012.3 | |
| 20260505084102 | 52 | 0.0 | 0.0 | 0.00 | 0.00 | 0.00 | 72 | 1012.3 | |
| 20260505083603 | 52 | 0.0 | 0.0 | 0.00 | 0.00 | 0.00 | 71 | 1012.4 | |
| 20260505083102 | 52 | 0.0 | 0.0 | 0.00 | 0.00 | 0.00 | 73 | 1012.5 | |
| 20260505082601 | 50 | 0.0 | 0.0 | 0.00 | 0.00 | 0.00 | 76 | 1012.5 | |
| 20260505082103 | 50 | 0.0 | 0.0 | 0.00 | 0.00 | 0.00 | 76 | 1012.5 | |
| 20260505081602 | 50 | 0.0 | 0.0 | 0.00 | 0.00 | 0.00 | 76 | 1012.6 | |
| 20260505081102 | 49 | 0.0 | 0.0 | 0.00 | 0.00 | 0.00 | 78 | 1012.6 | |
| 20260505080603 | 49 | 0.0 | 0.0 | 0.00 | 0.00 | 0.00 | 79 | 1012.6 | |
| 20260505080103 | 50 | 0.0 | 0.0 | 0.00 | 0.00 | 0.00 | 77 | 1012.6 | |
| 20260505075602 | 50 | 0.0 | 0.0 | 0.00 | 0.00 | 0.00 | 79 | 1012.5 | |
| 20260505075102 | 50 | 0.0 | 0.0 | 0.00 | 0.00 | 0.00 | 80 | 1012.5 | |
| 20260505074603 | 50 | 0.0 | 0.0 | 0.00 | 0.00 | 0.00 | 80 | 1012.5 | |
| 20260505074102 | 50 | 0.0 | 0.0 | 0.00 | 0.00 | 0.00 | 80 | 1012.5 | |
| 20260505073102 | 51 | 0.0 | 0.0 | 0.00 | 0.00 | 0.00 | 71 | 1012.5 | |
| 20260505072103 | 51 | 0.0 | 0.0 | 0.00 | 0.00 | 0.00 | 78 | 1012.5 | |
| 20260505071603 | 51 | 0.0 | 0.0 | 0.00 | 0.00 | 0.00 | 80 | 1012.5 | |
| 20260505071103 | 51 | 0.0 | 0.0 | 0.00 | 0.00 | 0.00 | 79 | 1012.6 | |
| 20260505070603 | 50 | 0.0 | 0.0 | 0.00 | 0.00 | 0.00 | 86 | 1012.6 | |
| 20260505065603 | 51 | 0.0 | 0.0 | 0.00 | 0.00 | 0.00 | 83 | 1012.6 | |
| 20260505064602 | 50 | 0.0 | 0.0 | 0.00 | 0.00 | 0.00 | 80 | 1012.7 | |
| 20260505064103 | 49 | 0.0 | 0.0 | 0.00 | 0.00 | 0.00 | 81 | 1012.8 | |
| 20260505063603 | 49 | 0.0 | 0.0 | 0.00 | 0.00 | 0.00 | 82 | 1012.8 | |
| 20260505063103 | 50 | 0.0 | 0.0 | 0.00 | 0.00 | 0.00 | 81 | 1012.9 | |
| 20260505062603 | 50 | 0.0 | 0.0 | 0.00 | 0.00 | 0.00 | 80 | 1012.9 | |
| 20260505062102 | 50 | 0.0 | 0.0 | 0.00 | 0.00 | 0.00 | 82 | 1012.9 | |
| 20260505061102 | 49 | 0.0 | 0.0 | 0.00 | 0.00 | 0.00 | 79 | 1012.9 | |
| 20260505060603 | 49 | 0.0 | 0.0 | 0.00 | 0.00 | 0.00 | 80 | 1012.8 | |
| 20260505055603 | 49 | 0.0 | 0.0 | 0.00 | 0.00 | 0.00 | 81 | 1012.8 | |
| 20260505055105 | 49 | 0.0 | 0.0 | 0.00 | 0.00 | 0.00 | 79 | 1012.8 | |
| 20260505054603 | 49 | 0.0 | 0.0 | 0.00 | 0.00 | 0.00 | 82 | 1012.7 | |
| 20260505054102 | 49 | 0.0 | 0.0 | 0.00 | 0.00 | 0.00 | 81 | 1012.7 | |
| 20260505053602 | 49 | 0.0 | 0.0 | 0.00 | 0.00 | 0.00 | 81 | 1012.7 | |
| 20260505053103 | 49 | 0.0 | 0.0 | 0.00 | 0.00 | 0.00 | 81 | 1012.7 | |
| 20260505052603 | 49 | 0.0 | 0.0 | 0.00 | 0.00 | 0.00 | 82 | 1012.7 | |
| 20260505052103 | 49 | 0.0 | 0.0 | 0.00 | 0.00 | 0.00 | 85 | 1012.7 | |
| 20260505051602 | 49 | 0.0 | 0.0 | 0.00 | 0.00 | 0.00 | 85 | 1012.7 | |
| 20260505051102 | 48 | 0.0 | 0.0 | 0.00 | 0.00 | 0.00 | 85 | 1012.7 | |
| 20260505050603 | 49 | 0.0 | 0.0 | 0.00 | 0.00 | 0.00 | 83 | 1012.7 | |
| 20260505050103 | 49 | 0.0 | 0.0 | 0.00 | 0.00 | 0.00 | 84 | 1012.7 | |
| 20260505041603 | 49 | 0.0 | 0.0 | 0.00 | 0.00 | 0.00 | 86 | 1012.6 | |
| 20260505041103 | 49 | 0.0 | 0.0 | 0.00 | 0.00 | 0.00 | 84 | 1012.6 | |
| 20260505040602 | 49 | 0.0 | 0.0 | 0.00 | 0.00 | 0.00 | 85 | 1012.6 | |
| 20260505035602 | 49 | 0.0 | 0.0 | 0.00 | 0.00 | 0.00 | 86 | 1012.6 | |
| 20260505034603 | 49 | 0.0 | 0.0 | 0.00 | 0.00 | 0.00 | 85 | 1012.8 | |
| 20260505034102 | 49 | 0.0 | 0.0 | 0.00 | 0.00 | 0.00 | 85 | 1012.7 | |
| 20260505033602 | 49 | 0.0 | 0.0 | 0.00 | 0.00 | 0.00 | 84 | 1012.7 | |
| 20260505032603 | 49 | 0.0 | 0.0 | 0.00 | 0.00 | 0.00 | 84 | 1012.8 | |
| 20260505032102 | 49 | 0.0 | 0.0 | 0.00 | 0.00 | 0.00 | 85 | 1012.8 | |
| 20260505031102 | 49 | 0.0 | 0.0 | 0.00 | 0.00 | 0.00 | 84 | 1012.8 | |
| 20260505030603 | 49 | 0.0 | 0.0 | 0.00 | 0.00 | 0.00 | 85 | 1012.8 | |
| 20260505025602 | 49 | 0.0 | 0.0 | 0.00 | 0.00 | 0.00 | 84 | 1012.8 | |
| 20260505025102 | 49 | 0.0 | 0.0 | 0.00 | 0.00 | 0.00 | 84 | 1012.7 | |
| 20260505024602 | 50 | 0.0 | 0.0 | 0.00 | 0.00 | 0.00 | 83 | 1012.7 | |
| 20260505024102 | 50 | 0.0 | 0.0 | 0.00 | 0.00 | 0.00 | 83 | 1012.7 | |
| 20260505023603 | 50 | 0.0 | 0.0 | 0.00 | 0.00 | 0.00 | 85 | 1012.8 | |
| 20260505023102 | 50 | 0.0 | 0.0 | 0.00 | 0.00 | 0.00 | 84 | 1012.7 | |
| 20260505022602 | 50 | 0.0 | 0.0 | 0.00 | 0.00 | 0.00 | 84 | 1012.7 | |
| 20260505021603 | 50 | 0.0 | 0.0 | 0.00 | 0.00 | 0.00 | 85 | 1012.7 | |
| 20260505021102 | 50 | 0.0 | 0.0 | 0.00 | 0.00 | 0.00 | 85 | 1012.7 | |
| 20260505020602 | 50 | 0.0 | 0.0 | 0.00 | 0.00 | 0.00 | 83 | 1012.7 | |
| 20260505020103 | 49 | 0.0 | 0.0 | 0.00 | 0.00 | 0.00 | 86 | 1012.7 | |
| 20260505015602 | 49 | 0.0 | 0.0 | 0.00 | 0.00 | 0.00 | 86 | 1012.7 | |
| 20260505015102 | 49 | 0.0 | 0.0 | 0.00 | 0.00 | 0.00 | 86 | 1012.7 | |
| 20260505014602 | 50 | 0.0 | 0.0 | 0.00 | 0.00 | 0.00 | 84 | 1012.6 | |
| 20260505014103 | 50 | 0.0 | 0.0 | 0.00 | 0.00 | 0.00 | 83 | 1012.6 | |
| 20260505013602 | 50 | 0.0 | 0.0 | 0.00 | 0.00 | 0.00 | 83 | 1012.6 | |
| 20260505013102 | 50 | 0.0 | 0.0 | 0.00 | 0.00 | 0.00 | 85 | 1012.6 | |
| 20260505012602 | 50 | 0.0 | 0.0 | 0.00 | 0.00 | 0.00 | 84 | 1012.6 | |
| 20260505012103 | 50 | 0.0 | 0.0 | 0.00 | 0.00 | 0.00 | 83 | 1012.7 | |
| 20260505011602 | 50 | 0.0 | 0.0 | 0.00 | 0.00 | 0.00 | 84 | 1012.7 | |
| 20260505011102 | 50 | 0.0 | 0.0 | 0.00 | 0.00 | 0.00 | 86 | 1012.7 | |
| 20260505010602 | 50 | 0.0 | 0.0 | 0.00 | 0.00 | 0.00 | 85 | 1012.8 | |
| 20260505005603 | 51 | 0.0 | 0.0 | 0.00 | 0.00 | 0.00 | 85 | 1012.8 | |
| 20260505005103 | 50 | 0.0 | 0.0 | 0.00 | 0.00 | 0.00 | 87 | 1012.8 | |
| 20260505004603 | 50 | 0.0 | 0.0 | 0.00 | 0.00 | 0.00 | 87 | 1012.8 | |
| 20260505004103 | 51 | 0.0 | 0.0 | 0.00 | 0.00 | 0.00 | 85 | 1012.9 | |
| 20260505003602 | 50 | 0.0 | 0.0 | 0.00 | 0.00 | 0.00 | 87 | 1012.9 | |
| 20260505003102 | 51 | 0.0 | 0.0 | 0.00 | 0.00 | 0.00 | 86 | 1013.0 | |
| 20260505002602 | 51 | 0.0 | 0.0 | 0.00 | 0.00 | 0.00 | 85 | 1013.0 | |
| 20260505002102 | 51 | 0.0 | 0.0 | 0.00 | 0.00 | 0.00 | 84 | 1013.0 |